Hourly Weather Alinowo

Today, 24 February, Wednesday

Time Temperature Precipitation Wind Pressure Humidity
00:00 +7°C° 0 mm 3 mps 765 mmHg 85%
01:00 +7°C° 0 mm 3 mps 765 mmHg 88%
02:00 +7°C° 0 mm 3 mps 765 mmHg 89%
03:00 +7°C° 0 mm 3 mps 764 mmHg 90%
04:00 +5°C° 0 mm 3 mps 764 mmHg 91%
05:00 +5°C° 0 mm 3 mps 764 mmHg 91%
06:00 +6°C° 0 mm 2 mps 765 mmHg 91%
07:00 +6°C° 0 mm 2 mps 765 mmHg 90%
08:00 +7°C° 0 mm 3 mps 765 mmHg 87%
09:00 +8°C° 0 mm 3 mps 765 mmHg 84%
10:00 +8°C° 0 mm 4 mps 764 mmHg 81%
11:00 +11°C° 0 mm 3 mps 764 mmHg 78%
12:00 +12°C° 0 mm 3 mps 764 mmHg 75%
13:00 +13°C° 0 mm 3 mps 764 mmHg 71%
14:00 +13°C° 0 mm 3 mps 764 mmHg 73%
15:00 +13°C° 0 mm 3 mps 764 mmHg 74%
16:00 +13°C° 0 mm 3 mps 763 mmHg 75%
17:00 +12°C° 0 mm 3 mps 763 mmHg 78%
18:00 +11°C° 0 mm 3 mps 763 mmHg 81%
19:00 +10°C° 0 mm 3 mps 763 mmHg 83%
20:00 +10°C° 0 mm 3 mps 763 mmHg 84%
21:00 +9°C° 0 mm 3 mps 763 mmHg 84%
22:00 +9°C° 0 mm 3 mps 763 mmHg 85%
23:00 +9°C° 0 mm 3 mps 763 mmHg 85%

Tomorrow, 25 February, Thursday

Time Temperature Precipitation Wind Pressure Humidity
00:00 +8°C° 0 mm 3 mps 763 mmHg 86%
01:00 +8°C° 0 mm 3 mps 763 mmHg 86%
02:00 +7°C° 0 mm 3 mps 763 mmHg 87%
03:00 +7°C° 0 mm 3 mps 762 mmHg 88%
04:00 +7°C° 0 mm 3 mps 762 mmHg 88%
05:00 +7°C° 0 mm 3 mps 762 mmHg 89%
06:00 +5°C° 0 mm 3 mps 762 mmHg 89%
07:00 +5°C° 0 mm 3 mps 762 mmHg 89%
08:00 +8°C° 0 mm 3 mps 762 mmHg 84%
09:00 +9°C° 0 mm 3 mps 762 mmHg 78%
10:00 +11°C° 0 mm 3 mps 761 mmHg 73%
11:00 +12°C° 0 mm 4 mps 761 mmHg 68%
12:00 +14°C° 0 mm 4 mps 761 mmHg 63%
13:00 +15°C° 0 mm 4 mps 761 mmHg 58%
14:00 +15°C° 0 mm 4 mps 760 mmHg 60%
15:00 +14°C° 0 mm 4 mps 760 mmHg 62%
16:00 +14°C° 0 mm 3 mps 759 mmHg 63%
17:00 +13°C° 0 mm 3 mps 759 mmHg 69%
18:00 +12°C° 0 mm 3 mps 759 mmHg 74%
19:00 +10°C° 0 mm 3 mps 759 mmHg 79%
20:00 +10°C° 0 mm 3 mps 759 mmHg 82%
21:00 +8°C° 0 mm 4 mps 759 mmHg 84%
22:00 +8°C° 0 mm 4 mps 759 mmHg 86%
23:00 +7°C° 0 mm 4 mps 760 mmHg 88%

Day after tomorrow, 26 February, Friday

Time Temperature Precipitation Wind Pressure Humidity
00:00 +7°C° 0 mm 4 mps 760 mmHg 89%
01:00 +8°C° 0 mm 3 mps 760 mmHg 91%
02:00 +7°C° 0 mm 3 mps 760 mmHg 92%
03:00 +7°C° 0 mm 3 mps 760 mmHg 93%
04:00 +5°C° 0 mm 3 mps 760 mmHg 95%
05:00 +5°C° 0 mm 3 mps 760 mmHg 95%
06:00 +5°C° 0 mm 3 mps 760 mmHg 96%
07:00 +4°C° 0 mm 3 mps 760 mmHg 96%
08:00 +5°C° 0 mm 3 mps 760 mmHg 91%
09:00 +7°C° 0 mm 3 mps 760 mmHg 85%
10:00 +7°C° 0 mm 4 mps 760 mmHg 80%
11:00 +7°C° 0 mm 4 mps 760 mmHg 78%
12:00 +7°C° 0 mm 5 mps 760 mmHg 75%
13:00 +7°C° 0 mm 5 mps 760 mmHg 72%
14:00 +7°C° 0 mm 5 mps 760 mmHg 72%
15:00 +6°C° 0 mm 5 mps 760 mmHg 72%
16:00 +6°C° 0 mm 4 mps 759 mmHg 72%
17:00 +6°C° 0 mm 4 mps 760 mmHg 75%
18:00 +5°C° 0 mm 4 mps 760 mmHg 79%
19:00 +4°C° 0 mm 4 mps 760 mmHg 82%
20:00 +3°C° 0 mm 4 mps 760 mmHg 83%
21:00 +3°C° 0 mm 4 mps 760 mmHg 85%
22:00 +1°C° 0 mm 5 mps 760 mmHg 87%
23:00 +2°C° 0 mm 5 mps 760 mmHg 87%

27 February, Saturday

Time Temperature Precipitation Wind Pressure Humidity
00:00 +2°C° 0 mm 5 mps 760 mmHg 87%
01:00 +2°C° 0 mm 5 mps 760 mmHg 87%
02:00 +1°C° 0 mm 5 mps 760 mmHg 88%
03:00 +1°C° 0 mm 6 mps 760 mmHg 89%
04:00 +1°C° 0 mm 6 mps 760 mmHg 90%
05:00 +1°C° 0 mm 6 mps 760 mmHg 89%
06:00 +1°C° 0 mm 6 mps 761 mmHg 88%
07:00 +1°C° 0 mm 5 mps 761 mmHg 87%
08:00 +1°C° 0 mm 5 mps 761 mmHg 85%
09:00 +2°C° 0 mm 6 mps 762 mmHg 82%
10:00 +2°C° 0 mm 6 mps 762 mmHg 80%
11:00 +3°C° 0 mm 6 mps 763 mmHg 76%
12:00 +5°C° 0 mm 5 mps 763 mmHg 72%
13:00 +5°C° 0 mm 5 mps 763 mmHg 69%
14:00 +6°C° 0 mm 5 mps 763 mmHg 67%
15:00 +6°C° 0 mm 5 mps 763 mmHg 65%
16:00 +6°C° 0 mm 4 mps 763 mmHg 63%
17:00 +5°C° 0 mm 4 mps 764 mmHg 68%
18:00 +4°C° 0 mm 3 mps 764 mmHg 73%
19:00 +2°C° 0 mm 3 mps 764 mmHg 79%
20:00 +2°C° 0 mm 3 mps 764 mmHg 81%
21:00 +1°C° 0 mm 3 mps 765 mmHg 84%
22:00 0°C° 0 mm 3 mps 765 mmHg 86%
23:00 +1°C° 0 mm 2 mps 765 mmHg 86%

28 February, Sunday

Time Temperature Precipitation Wind Pressure Humidity
00:00 -1°C° 0 mm 2 mps 765 mmHg 86%
01:00 -1°C° 0 mm 2 mps 765 mmHg 86%
02:00 -1°C° 0 mm 2 mps 765 mmHg 85%
03:00 -1°C° 0 mm 2 mps 765 mmHg 84%
04:00 -1°C° 0 mm 2 mps 765 mmHg 83%
05:00 -1°C° 0 mm 2 mps 765 mmHg 82%
06:00 -1°C° 0 mm 2 mps 765 mmHg 81%
07:00 -1°C° 0 mm 2 mps 765 mmHg 80%
08:00 +1°C° 0 mm 2 mps 765 mmHg 75%
09:00 +2°C° 0 mm 3 mps 765 mmHg 71%
10:00 +3°C° 0 mm 3 mps 765 mmHg 66%
11:00 +4°C° 0 mm 3 mps 765 mmHg 65%
12:00 +5°C° 0 mm 3 mps 765 mmHg 64%
13:00 +7°C° 0 mm 3 mps 765 mmHg 63%
14:00 +6°C° 0 mm 2 mps 765 mmHg 69%
15:00 +6°C° 0 mm 2 mps 765 mmHg 75%
16:00 +6°C° 0 mm 1 mps 765 mmHg 81%
17:00 +5°C° 0.1 mm 1 mps 765 mmHg 85%
18:00 +5°C° 0.1 mm 1 mps 765 mmHg 89%
19:00 +4°C° 0.1 mm 1 mps 765 mmHg 93%
20:00 +4°C° 0 mm 1 mps 766 mmHg 93%
21:00 +4°C° 0 mm 1 mps 766 mmHg 94%
22:00 +4°C° 0 mm 1 mps 767 mmHg 94%
23:00 +3°C° 0 mm 1 mps 767 mmHg 94%

1 March, Monday

Time Temperature Precipitation Wind Pressure Humidity
00:00 +3°C° 0 mm 1 mps 767 mmHg 94%
01:00 +2°C° 0 mm 1 mps 767 mmHg 93%
02:00 +2°C° 0 mm 1 mps 767 mmHg 93%
03:00 +2°C° 0 mm 1 mps 767 mmHg 93%
04:00 +1°C° 0 mm 1 mps 767 mmHg 94%
05:00 +1°C° 0 mm 1 mps 767 mmHg 94%
06:00 +1°C° 0 mm 1 mps 767 mmHg 94%
07:00 +1°C° 0 mm 1 mps 768 mmHg 94%
08:00 +3°C° 0 mm 1 mps 768 mmHg 89%
09:00 +4°C° 0 mm 1 mps 768 mmHg 83%
10:00 +5°C° 0 mm 1 mps 768 mmHg 78%
11:00 +6°C° 0 mm 1 mps 768 mmHg 74%
12:00 +7°C° 0 mm 1 mps 768 mmHg 70%
13:00 +8°C° 0 mm 1 mps 768 mmHg 66%
14:00 +8°C° 0 mm 1 mps 768 mmHg 66%
15:00 +8°C° 0 mm 1 mps 767 mmHg 66%
16:00 +8°C° 0 mm 1 mps 767 mmHg 66%
17:00 +7°C° 0 mm 1 mps 767 mmHg 71%
18:00 +6°C° 0 mm 1 mps 767 mmHg 76%
19:00 +5°C° 0 mm 1 mps 767 mmHg 81%
20:00 +4°C° 0 mm 1 mps 767 mmHg 82%
21:00 +4°C° 0 mm 1 mps 768 mmHg 84%
22:00 +3°C° 0 mm 1 mps 768 mmHg 85%
23:00 +3°C° 0 mm 1 mps 768 mmHg 86%
Show more